| time (UTC) | temp C | wind direction | speed KPH | gust KPH | rain 1hr cm | rain 24hr cm | rain mn cm | humidity % | barometer mb |
| 20260506224432 | 27 | 252 | 1.6 | 4.8 | 0.00 | 0.00 | 0.00 | 89 | 1008.5 |
| 20260506223910 | 27 | 230 | 0.0 | 4.8 | 0.00 | 0.00 | 0.00 | 89 | 1008.8 |
| 20260506223406 | 27 | 244 | 0.0 | 4.8 | 0.00 | 0.00 | 0.00 | 89 | 1008.8 |
| 20260506222903 | 27 | 162 | 1.6 | 1.6 | 0.00 | 0.00 | 0.00 | 89 | 1008.8 |
| 20260506222400 | 27 | 162 | 0.0 | 1.6 | 0.00 | 0.00 | 0.00 | 89 | 1008.8 |
| 20260506221856 | 27 | 162 | 0.0 | 1.6 | 0.00 | 0.00 | 0.00 | 89 | 1008.8 |
| 20260506221353 | 27 | 162 | 0.0 | 3.2 | 0.00 | 0.00 | 0.00 | 89 | 1008.8 |
| 20260506220818 | 27 | 162 | 0.0 | 3.2 | 0.00 | 0.00 | 0.00 | 89 | 1008.8 |
| 20260506220315 | 27 | 162 | 0.0 | 4.8 | 0.00 | 0.00 | 0.00 | 88 | 1008.8 |
| 20260506215812 | 27 | 166 | 1.6 | 4.8 | 0.00 | 0.00 | 0.00 | 88 | 1008.8 |
| 20260506215309 | 28 | 317 | 1.6 | 4.8 | 0.00 | 0.00 | 0.00 | 88 | 1008.8 |
| 20260506214805 | 28 | 317 | 1.6 | 4.8 | 0.00 | 0.00 | 0.00 | 87 | 1008.8 |
| 20260506214301 | 28 | 317 | 1.6 | 3.2 | 0.00 | 0.00 | 0.00 | 87 | 1008.8 |
| 20260506213727 | 28 | 319 | 1.6 | 3.2 | 0.00 | 0.00 | 0.00 | 87 | 1008.8 |
| 20260506213224 | 28 | 322 | 1.6 | 3.2 | 0.00 | 0.00 | 0.00 | 87 | 1008.8 |
| 20260506212721 | 29 | 329 | 1.6 | 4.8 | 0.00 | 0.00 | 0.00 | 86 | 1008.8 |
| 20260506212147 | 29 | 5 | 1.6 | 4.8 | 0.00 | 0.00 | 0.00 | 86 | 1008.8 |
| 20260506211451 | 30 | 7 | 1.6 | 4.8 | 0.00 | 0.00 | 0.00 | 86 | 1008.8 |
| 20260506210948 | 29 | 314 | 1.6 | 4.8 | 0.00 | 0.00 | 0.00 | 87 | 1008.8 |
| 20260506210445 | 29 | 319 | 1.6 | 4.8 | 0.00 | 0.00 | 0.00 | 87 | 1008.8 |
| 20260506205942 | 29 | 126 | 1.6 | 3.2 | 0.00 | 0.00 | 0.00 | 87 | 1008.8 |
| 20260506205439 | 28 | 109 | 1.6 | 3.2 | 0.00 | 0.00 | 0.00 | 88 | 1008.8 |
| 20260506204936 | 28 | 330 | 1.6 | 3.2 | 0.00 | 0.00 | 0.00 | 88 | 1008.8 |
| 20260506204402 | 28 | 58 | 1.6 | 3.2 | 0.00 | 0.00 | 0.00 | 88 | 1009.1 |
| 20260506203859 | 28 | 64 | 1.6 | 4.8 | 0.00 | 0.00 | 0.00 | 87 | 1009.1 |
| 20260506203356 | 28 | 85 | 1.6 | 4.8 | 0.00 | 0.00 | 0.00 | 88 | 1009.1 |
| 20260506202853 | 28 | 85 | 1.6 | 4.8 | 0.00 | 0.00 | 0.00 | 88 | 1009.1 |
| 20260506202318 | 28 | 56 | 3.2 | 4.8 | 0.00 | 0.00 | 0.00 | 88 | 1009.1 |
| 20260506201815 | 28 | 123 | 1.6 | 3.2 | 0.00 | 0.00 | 0.00 | 88 | 1009.5 |
| 20260506201312 | 28 | 290 | 1.6 | 3.2 | 0.00 | 0.00 | 0.00 | 89 | 1009.5 |
| 20260506200750 | 28 | 173 | 1.6 | 3.2 | 0.00 | 0.00 | 0.00 | 88 | 1009.5 |
| 20260506200247 | 28 | 302 | 1.6 | 3.2 | 0.00 | 0.00 | 0.00 | 89 | 1009.5 |
| 20260506195725 | 28 | 301 | 0.0 | 3.2 | 0.00 | 0.00 | 0.00 | 88 | 1009.5 |
| 20260506195048 | 28 | 302 | 1.6 | 3.2 | 0.00 | 0.00 | 0.00 | 89 | 1009.5 |
| 20260506194443 | 28 | 170 | 1.6 | 3.2 | 0.00 | 0.00 | 0.00 | 89 | 1009.8 |
| 20260506193940 | 28 | 311 | 1.6 | 3.2 | 0.00 | 0.00 | 0.00 | 89 | 1009.8 |
| 20260506193437 | 28 | 311 | 1.6 | 3.2 | 0.00 | 0.00 | 0.00 | 89 | 1009.8 |
| 20260506192934 | 28 | 312 | 0.0 | 1.6 | 0.00 | 0.00 | 0.00 | 89 | 1009.8 |
| 20260506192431 | 27 | 312 | 0.0 | 1.6 | 0.00 | 0.00 | 0.00 | 90 | 1009.8 |
| 20260506191928 | 27 | 312 | 1.6 | 1.6 | 0.00 | 0.00 | 0.00 | 90 | 1010.2 |
| 20260506191323 | 27 | 300 | 0.0 | 1.6 | 0.00 | 0.00 | 0.00 | 90 | 1010.2 |
| 20260506190820 | 27 | 300 | 1.6 | 1.6 | 0.00 | 0.00 | 0.00 | 90 | 1010.2 |
| 20260506190317 | 27 | 300 | 0.0 | 1.6 | 0.00 | 0.00 | 0.00 | 90 | 1010.2 |
| 20260506185742 | 27 | 300 | 0.0 | 1.6 | 0.00 | 0.00 | 0.00 | 91 | 1010.2 |
| 20260506185239 | 27 | 300 | 0.0 | 0.0 | 0.00 | 0.00 | 0.00 | 90 | 1010.2 |
| 20260506184736 | 27 | 300 | 0.0 | 0.0 | 0.00 | 0.00 | 0.00 | 90 | 1010.2 |
| 20260506184233 | 27 | 300 | 0.0 | 1.6 | 0.00 | 0.00 | 0.00 | 90 | 1010.2 |
| 20260506183659 | 27 | 300 | 0.0 | 1.6 | 0.00 | 0.00 | 0.00 | 90 | 1010.2 |
| 20260506183155 | 27 | 300 | 0.0 | 1.6 | 0.00 | 0.00 | 0.00 | 90 | 1010.5 |
| 20260506182652 | 27 | 300 | 1.6 | 1.6 | 0.00 | 0.00 | 0.00 | 90 | 1010.5 |
| 20260506182149 | 27 | 299 | 1.6 | 3.2 | 0.00 | 0.00 | 0.00 | 89 | 1010.5 |
| 20260506181645 | 27 | 299 | 0.0 | 3.2 | 0.00 | 0.00 | 0.00 | 90 | 1010.5 |
| 20260506181142 | 27 | 319 | 1.6 | 3.2 | 0.00 | 0.00 | 0.00 | 89 | 1010.8 |
| 20260506180620 | 27 | 30 | 0.0 | 1.6 | 0.00 | 0.00 | 0.00 | 89 | 1010.8 |
| 20260506180117 | 27 | 30 | 1.6 | 3.2 | 0.00 | 0.00 | 0.00 | 89 | 1010.8 |
| 20260506175607 | 27 | 28 | 0.0 | 3.2 | 0.00 | 0.00 | 0.00 | 89 | 1010.5 |
| 20260506175103 | 27 | 28 | 0.0 | 3.2 | 0.00 | 0.00 | 0.00 | 89 | 1010.8 |
| 20260506174600 | 27 | 11 | 1.6 | 1.6 | 0.00 | 0.00 | 0.00 | 90 | 1010.5 |
| 20260506174026 | 27 | 11 | 0.0 | 1.6 | 0.00 | 0.00 | 0.00 | 90 | 1010.8 |
| 20260506173522 | 27 | 140 | 1.6 | 3.2 | 0.00 | 0.00 | 0.00 | 91 | 1010.8 |
| 20260506173019 | 27 | 182 | 0.0 | 3.2 | 0.00 | 0.00 | 0.00 | 90 | 1010.8 |
| 20260506172515 | 27 | 182 | 0.0 | 3.2 | 0.00 | 0.00 | 0.00 | 91 | 1011.2 |
| 20260506172004 | 27 | 20 | 0.0 | 0.0 | 0.00 | 0.00 | 0.00 | 91 | 1010.8 |
| 20260506171501 | 27 | 38 | 0.0 | 0.0 | 0.00 | 0.00 | 0.00 | 91 | 1011.2 |
| 20260506170939 | 27 | 48 | 0.0 | 0.0 | 0.00 | 0.00 | 0.00 | 91 | 1011.2 |
| 20260506170436 | 27 | 48 | 0.0 | 0.0 | 0.00 | 0.00 | 0.00 | 91 | 1011.2 |
| 20260506165932 | 27 | 48 | 0.0 | 0.0 | 0.00 | 0.00 | 0.00 | 92 | 1011.2 |
| 20260506165429 | 27 | 48 | 0.0 | 0.0 | 0.00 | 0.00 | 0.00 | 92 | 1011.2 |
| 20260506164925 | 26 | 48 | 0.0 | 0.0 | 0.00 | 0.00 | 0.00 | 92 | 1011.2 |
| 20260506164422 | 26 | 48 | 0.0 | 0.0 | 0.00 | 0.00 | 0.00 | 93 | 1011.2 |
| 20260506163915 | 26 | 48 | 0.0 | 0.0 | 0.00 | 0.00 | 0.00 | 93 | 1011.2 |
| 20260506163412 | 26 | 355 | 0.0 | 0.0 | 0.00 | 0.00 | 0.00 | 93 | 1011.2 |
| 20260506162909 | 26 | 355 | 0.0 | 0.0 | 0.00 | 0.00 | 0.00 | 93 | 1011.2 |
| 20260506162404 | 26 | 355 | 0.0 | 0.0 | 0.00 | 0.00 | 0.00 | 94 | 1011.2 |
| 20260506161811 | 26 | 355 | 0.0 | 0.0 | 0.00 | 0.00 | 0.00 | 94 | 1010.8 |
| 20260506161247 | 26 | 355 | 0.0 | 0.0 | 0.00 | 0.00 | 0.00 | 94 | 1010.8 |
| 20260506160742 | 26 | 355 | 0.0 | 0.0 | 0.00 | 0.00 | 0.00 | 93 | 1011.2 |
| 20260506160239 | 26 | 355 | 0.0 | 0.0 | 0.00 | 0.00 | 0.00 | 93 | 1011.2 |
| 20260506155655 | 26 | 355 | 0.0 | 0.0 | 0.00 | 0.00 | 0.00 | 93 | 1010.8 |
| 20260506155132 | 26 | 355 | 0.0 | 0.0 | 0.00 | 0.00 | 0.00 | 94 | 1010.8 |
| 20260506154629 | 25 | 355 | 0.0 | 0.0 | 0.00 | 0.00 | 0.00 | 94 | 1010.5 |
| 20260506154126 | 25 | 360 | 0.0 | 0.0 | 0.00 | 0.00 | 0.00 | 94 | 1010.5 |
| 20260506153623 | 25 | 333 | 0.0 | 0.0 | 0.00 | 0.00 | 0.00 | 93 | 1010.5 |
| 20260506153120 | 25 | 333 | 0.0 | 0.0 | 0.00 | 0.00 | 0.00 | 93 | 1010.5 |
| 20260506152616 | 25 | 333 | 0.0 | 0.0 | 0.00 | 0.00 | 0.00 | 93 | 1010.5 |
| 20260506152042 | 25 | 329 | 0.0 | 0.0 | 0.00 | 0.00 | 0.00 | 94 | 1010.5 |
| 20260506151538 | 25 | 329 | 0.0 | 0.0 | 0.00 | 0.00 | 0.00 | 94 | 1010.5 |
| 20260506151035 | 25 | 329 | 0.0 | 0.0 | 0.00 | 0.00 | 0.00 | 94 | 1010.5 |
| 20260506150532 | 25 | 329 | 0.0 | 0.0 | 0.00 | 0.00 | 0.00 | 94 | 1010.2 |
| 20260506150028 | 25 | 329 | 0.0 | 0.0 | 0.00 | 0.00 | 0.00 | 94 | 1010.2 |
| 20260506145526 | 25 | 328 | 0.0 | 0.0 | 0.00 | 0.00 | 0.00 | 94 | 1010.2 |
| 20260506145023 | 25 | 328 | 0.0 | 0.0 | 0.00 | 0.00 | 0.00 | 94 | 1010.2 |
| 20260506144519 | 25 | 328 | 0.0 | 0.0 | 0.00 | 0.00 | 0.00 | 94 | 1009.8 |
| 20260506144011 | 25 | 328 | 0.0 | 0.0 | 0.00 | 0.00 | 0.00 | 94 | 1009.8 |
| 20260506143508 | 25 | 328 | 0.0 | 0.0 | 0.00 | 0.00 | 0.00 | 94 | 1009.8 |
| 20260506143004 | 25 | 329 | 0.0 | 0.0 | 0.00 | 0.00 | 0.00 | 94 | 1010.2 |
| 20260506142459 | 25 | 328 | 0.0 | 0.0 | 0.00 | 0.00 | 0.00 | 94 | 1010.2 |
| 20260506141952 | 25 | 329 | 0.0 | 0.0 | 0.00 | 0.00 | 0.00 | 94 | 1010.2 |
| 20260506141447 | 25 | 329 | 0.0 | 0.0 | 0.00 | 0.00 | 0.00 | 94 | 1010.2 |
| 20260506140943 | 25 | 329 | 0.0 | 0.0 | 0.00 | 0.00 | 0.00 | 94 | 1010.2 |
| 20260506140438 | 25 | 328 | 0.0 | 0.0 | 0.00 | 0.00 | 0.00 | 95 | 1010.2 |
| 20260506135901 | 25 | 328 | 0.0 | 0.0 | 0.00 | 0.00 | 0.00 | 95 | 1010.2 |
| 20260506135357 | 25 | 328 | 0.0 | 0.0 | 0.00 | 0.00 | 0.00 | 95 | 1010.2 |
| 20260506134820 | 25 | 328 | 0.0 | 0.0 | 0.00 | 0.00 | 0.00 | 95 | 1010.2 |
| 20260506134245 | 25 | 328 | 0.0 | 0.0 | 0.00 | 0.00 | 0.00 | 95 | 1010.2 |
| 20260506133741 | 25 | 328 | 0.0 | 0.0 | 0.00 | 0.00 | 0.00 | 95 | 1010.2 |
| 20260506133205 | 25 | 328 | 0.0 | 0.0 | 0.00 | 0.00 | 0.00 | 95 | 1010.2 |
| 20260506132700 | 25 | 328 | 0.0 | 0.0 | 0.00 | 0.00 | 0.00 | 95 | 1010.2 |
| 20260506132126 | 25 | 328 | 0.0 | 0.0 | 0.00 | 0.00 | 0.00 | 95 | 1010.2 |
| 20260506131621 | 25 | 329 | 0.0 | 0.0 | 0.00 | 0.00 | 0.00 | 95 | 1010.5 |
| 20260506131059 | 25 | 328 | 0.0 | 0.0 | 0.00 | 0.00 | 0.00 | 95 | 1010.2 |
| 20260506130533 | 25 | 328 | 0.0 | 0.0 | 0.00 | 0.00 | 0.00 | 95 | 1010.2 |
| 20260506130029 | 24 | 328 | 0.0 | 0.0 | 0.00 | 0.00 | 0.00 | 95 | 1010.2 |
| 20260506125453 | 24 | 328 | 0.0 | 0.0 | 0.00 | 0.00 | 0.00 | 95 | 1010.2 |
| 20260506124949 | 24 | 328 | 0.0 | 0.0 | 0.00 | 0.00 | 0.00 | 95 | 1010.2 |
| 20260506124445 | 24 | 329 | 0.0 | 0.0 | 0.00 | 0.00 | 0.00 | 95 | 1010.2 |
| 20260506123941 | 24 | 328 | 0.0 | 0.0 | 0.00 | 0.00 | 0.00 | 95 | 1010.2 |
| 20260506123436 | 24 | 328 | 0.0 | 0.0 | 0.00 | 0.00 | 0.00 | 95 | 1010.2 |
| 20260506122931 | 24 | 328 | 0.0 | 0.0 | 0.00 | 0.00 | 0.00 | 95 | 1010.2 |
| 20260506121848 | 24 | 329 | 0.0 | 0.0 | 0.00 | 0.00 | 0.00 | 95 | 1009.8 |
| 20260506121314 | 24 | 328 | 0.0 | 0.0 | 0.00 | 0.00 | 0.00 | 95 | 1009.8 |
| 20260506120752 | 24 | 328 | 0.0 | 0.0 | 0.00 | 0.00 | 0.00 | 95 | 1009.8 |
| 20260506120249 | 24 | 327 | 0.0 | 0.0 | 0.00 | 0.00 | 0.00 | 95 | 1009.8 |
| 20260506115746 | 24 | 333 | 0.0 | 0.0 | 0.00 | 0.00 | 0.00 | 95 | 1009.8 |
| 20260506115243 | 24 | 333 | 0.0 | 0.0 | 0.00 | 0.00 | 0.00 | 95 | 1009.5 |
| 20260506114739 | 24 | 333 | 0.0 | 0.0 | 0.00 | 0.00 | 0.00 | 95 | 1009.5 |
| 20260506114236 | 24 | 333 | 0.0 | 0.0 | 0.00 | 0.00 | 0.00 | 95 | 1009.5 |
| 20260506113733 | 24 | 333 | 0.0 | 0.0 | 0.00 | 0.00 | 0.00 | 95 | 1009.5 |
| 20260506113230 | 24 | 333 | 0.0 | 0.0 | 0.00 | 0.00 | 0.00 | 95 | 1009.5 |
| 20260506112727 | 24 | 333 | 0.0 | 0.0 | 0.00 | 0.00 | 0.00 | 95 | 1009.1 |
| 20260506112223 | 24 | 333 | 0.0 | 0.0 | 0.00 | 0.00 | 0.00 | 95 | 1009.1 |
| 20260506111720 | 24 | 333 | 0.0 | 0.0 | 0.00 | 0.00 | 0.00 | 95 | 1009.1 |
| 20260506111202 | 24 | 333 | 0.0 | 0.0 | 0.00 | 0.00 | 0.00 | 95 | 1009.1 |
| 20260506110659 | 24 | 333 | 0.0 | 0.0 | 0.00 | 0.00 | 0.00 | 95 | 1009.1 |
| 20260506110137 | 24 | 333 | 0.0 | 0.0 | 0.00 | 0.00 | 0.00 | 94 | 1009.1 |
| 20260506105612 | 24 | 333 | 0.0 | 0.0 | 0.00 | 0.00 | 0.00 | 95 | 1009.1 |
| 20260506105109 | 24 | 333 | 0.0 | 0.0 | 0.00 | 0.00 | 0.00 | 95 | 1009.1 |
| 20260506104535 | 24 | 333 | 0.0 | 0.0 | 0.00 | 0.00 | 0.00 | 95 | 1009.1 |
| 20260506104031 | 24 | 333 | 0.0 | 0.0 | 0.00 | 0.00 | 0.00 | 95 | 1009.1 |
| 20260506103528 | 23 | 15 | 0.0 | 0.0 | 0.00 | 0.00 | 0.00 | 94 | 1009.1 |
| 20260506103025 | 23 | 15 | 0.0 | 0.0 | 0.00 | 0.00 | 0.00 | 94 | 1009.1 |
| 20260506102522 | 24 | 15 | 0.0 | 0.0 | 0.00 | 0.00 | 0.00 | 94 | 1009.1 |
| 20260506102019 | 24 | 15 | 0.0 | 0.0 | 0.00 | 0.00 | 0.00 | 94 | 1009.1 |
| 20260506101516 | 24 | 15 | 0.0 | 0.0 | 0.00 | 0.00 | 0.00 | 94 | 1008.8 |
| 20260506101013 | 24 | 15 | 0.0 | 0.0 | 0.00 | 0.00 | 0.00 | 94 | 1008.8 |
| 20260506100510 | 24 | 15 | 0.0 | 0.0 | 0.00 | 0.00 | 0.00 | 94 | 1008.8 |
| 20260506095905 | 24 | 340 | 0.0 | 0.0 | 0.00 | 0.00 | 0.00 | 94 | 1008.8 |
| 20260506095402 | 24 | 346 | 0.0 | 0.0 | 0.00 | 0.00 | 0.00 | 94 | 1008.8 |
| 20260506094859 | 23 | 5 | 0.0 | 0.0 | 0.00 | 0.00 | 0.00 | 94 | 1008.8 |
| 20260506094355 | 23 | 26 | 0.0 | 0.0 | 0.00 | 0.00 | 0.00 | 94 | 1008.8 |
| 20260506093852 | 24 | 26 | 0.0 | 0.0 | 0.00 | 0.00 | 0.00 | 94 | 1008.8 |
| 20260506093349 | 24 | 26 | 0.0 | 0.0 | 0.00 | 0.00 | 0.00 | 94 | 1008.8 |
| 20260506092814 | 24 | 26 | 0.0 | 0.0 | 0.00 | 0.00 | 0.00 | 94 | 1009.1 |
| 20260506092310 | 24 | 26 | 0.0 | 0.0 | 0.00 | 0.00 | 0.00 | 94 | 1008.8 |
| 20260506091807 | 24 | 26 | 0.0 | 0.0 | 0.00 | 0.00 | 0.00 | 94 | 1008.8 |
| 20260506091304 | 24 | 26 | 0.0 | 0.0 | 0.00 | 0.00 | 0.00 | 94 | 1009.1 |
| 20260506090800 | 24 | 26 | 0.0 | 0.0 | 0.00 | 0.00 | 0.00 | 94 | 1009.1 |
| 20260506090257 | 24 | 26 | 0.0 | 0.0 | 0.00 | 0.00 | 0.00 | 94 | 1008.8 |
| 20260506085754 | 24 | 26 | 0.0 | 0.0 | 0.00 | 0.00 | 0.00 | 94 | 1009.1 |
| 20260506085220 | 24 | 26 | 0.0 | 0.0 | 0.00 | 0.00 | 0.00 | 94 | 1009.1 |
| 20260506084645 | 24 | 26 | 0.0 | 0.0 | 0.00 | 0.00 | 0.00 | 94 | 1009.1 |
| 20260506084142 | 24 | 26 | 0.0 | 0.0 | 0.00 | 0.00 | 0.00 | 94 | 1009.1 |
| 20260506083638 | 24 | 53 | 0.0 | 0.0 | 0.00 | 0.00 | 0.00 | 94 | 1009.1 |
| 20260506083135 | 24 | 360 | 0.0 | 0.0 | 0.00 | 0.00 | 0.00 | 94 | 1009.1 |
| 20260506082632 | 24 | 360 | 0.0 | 0.0 | 0.00 | 0.00 | 0.00 | 94 | 1009.1 |
| 20260506082129 | 24 | 360 | 0.0 | 0.0 | 0.00 | 0.00 | 0.00 | 94 | 1009.1 |
| 20260506081625 | 24 | 360 | 0.0 | 0.0 | 0.00 | 0.00 | 0.00 | 93 | 1009.5 |
| 20260506081122 | 24 | 360 | 0.0 | 0.0 | 0.00 | 0.00 | 0.00 | 93 | 1009.5 |
| 20260506080601 | 24 | 360 | 0.0 | 0.0 | 0.00 | 0.00 | 0.00 | 94 | 1009.5 |
| 20260506073520 | 24 | 360 | 0.0 | 0.0 | 0.00 | 0.00 | 0.00 | 94 | 1009.8 |
| 20260506073016 | 24 | 360 | 0.0 | 0.0 | 0.00 | 0.00 | 0.00 | 94 | 1009.8 |
| 20260506072514 | 24 | 360 | 0.0 | 0.0 | 0.00 | 0.00 | 0.00 | 93 | 1009.8 |
| 20260506072011 | 24 | 360 | 0.0 | 0.0 | 0.00 | 0.00 | 0.00 | 93 | 1009.8 |
| 20260506071449 | 24 | 360 | 0.0 | 0.0 | 0.00 | 0.00 | 0.00 | 93 | 1010.2 |
| 20260506070926 | 24 | 360 | 0.0 | 0.0 | 0.00 | 0.00 | 0.00 | 93 | 1010.2 |
| 20260506070424 | 24 | 360 | 0.0 | 0.0 | 0.00 | 0.00 | 0.00 | 93 | 1010.2 |
| 20260506062237 | 24 | 360 | 0.0 | 0.0 | 0.00 | 0.00 | 0.00 | 93 | 1009.8 |
| 20260506061734 | 24 | 360 | 0.0 | 0.0 | 0.00 | 0.00 | 0.00 | 93 | 1009.8 |
| 20260506061230 | 24 | 348 | 0.0 | 0.0 | 0.00 | 0.00 | 0.00 | 93 | 1009.8 |
| 20260506060727 | 24 | 355 | 0.0 | 0.0 | 0.00 | 0.00 | 0.00 | 93 | 1009.8 |
| 20260506060152 | 24 | 355 | 0.0 | 0.0 | 0.00 | 0.00 | 0.00 | 93 | 1009.8 |
| 20260506051019 | 25 | 169 | 0.0 | 0.0 | 0.00 | 0.00 | 0.00 | 93 | 1010.2 |
| 20260506050516 | 25 | 169 | 0.0 | 0.0 | 0.00 | 0.00 | 0.00 | 93 | 1010.2 |
| 20260506044935 | 25 | 134 | 0.0 | 0.0 | 0.00 | 0.00 | 0.00 | 93 | 1009.8 |
| 20260506044432 | 25 | 134 | 0.0 | 0.0 | 0.00 | 0.00 | 0.00 | 93 | 1009.8 |
| 20260506043929 | 25 | 134 | 0.0 | 0.0 | 0.00 | 0.00 | 0.00 | 93 | 1009.8 |
| 20260506043426 | 25 | 336 | 0.0 | 0.0 | 0.00 | 0.00 | 0.00 | 93 | 1009.8 |
| 20260506042922 | 25 | 5 | 0.0 | 0.0 | 0.00 | 0.00 | 0.00 | 93 | 1009.8 |
| 20260506042419 | 25 | 5 | 0.0 | 3.2 | 0.00 | 0.00 | 0.00 | 93 | 1009.8 |
| 20260506041916 | 25 | 5 | 0.0 | 3.2 | 0.00 | 0.00 | 0.00 | 93 | 1010.2 |
| 20260506041342 | 25 | 5 | 0.0 | 3.2 | 0.00 | 0.00 | 0.00 | 92 | 1009.8 |
| 20260506040838 | 25 | 185 | 1.6 | 3.2 | 0.00 | 0.00 | 0.00 | 92 | 1009.8 |
| 20260506040335 | 25 | 186 | 1.6 | 1.6 | 0.00 | 0.00 | 0.00 | 92 | 1009.8 |
| 20260506035831 | 25 | 185 | 1.6 | 1.6 | 0.00 | 0.00 | 0.00 | 92 | 1009.8 |
| 20260506035328 | 25 | 132 | 0.0 | 3.2 | 0.00 | 0.00 | 0.00 | 92 | 1009.8 |
| 20260506034754 | 25 | 134 | 1.6 | 3.2 | 0.00 | 0.00 | 0.00 | 92 | 1009.8 |
| 20260506034251 | 25 | 134 | 1.6 | 3.2 | 0.00 | 0.00 | 0.00 | 92 | 1009.8 |
| 20260506033748 | 25 | 134 | 1.6 | 4.8 | 0.00 | 0.00 | 0.00 | 92 | 1009.8 |
| 20260506033245 | 25 | 134 | 1.6 | 4.8 | 0.00 | 0.00 | 0.00 | 92 | 1009.8 |
| 20260506032742 | 25 | 159 | 1.6 | 4.8 | 0.00 | 0.00 | 0.00 | 92 | 1009.8 |
| 20260506032239 | 25 | 159 | 1.6 | 4.8 | 0.00 | 0.00 | 0.00 | 92 | 1009.8 |
| 20260506031736 | 25 | 322 | 0.0 | 1.6 | 0.00 | 0.00 | 0.00 | 92 | 1009.8 |
| 20260506031233 | 25 | 17 | 0.0 | 1.6 | 0.00 | 0.00 | 0.00 | 92 | 1009.5 |
| 20260506030627 | 25 | 17 | 0.0 | 1.6 | 0.00 | 0.00 | 0.00 | 92 | 1009.5 |
| 20260506030124 | 25 | 17 | 0.0 | 1.6 | 0.00 | 0.00 | 0.00 | 92 | 1009.5 |
| 20260506025620 | 25 | 17 | 0.0 | 1.6 | 0.00 | 0.00 | 0.00 | 92 | 1009.5 |
| 20260506025008 | 25 | 201 | 1.6 | 1.6 | 0.00 | 0.00 | 0.00 | 92 | 1009.5 |
| 20260506024446 | 25 | 202 | 0.0 | 1.6 | 0.00 | 0.00 | 0.00 | 93 | 1009.5 |
| 20260506023912 | 25 | 202 | 0.0 | 0.0 | 0.00 | 0.00 | 0.00 | 93 | 1009.1 |
| 20260506023408 | 25 | 201 | 0.0 | 0.0 | 0.00 | 0.00 | 0.00 | 93 | 1009.1 |
| 20260506022846 | 25 | 239 | 0.0 | 0.0 | 0.00 | 0.00 | 0.00 | 93 | 1009.1 |
| 20260506022342 | 25 | 239 | 0.0 | 1.6 | 0.00 | 0.00 | 0.00 | 93 | 1009.1 |
| 20260506021823 | 25 | 239 | 0.0 | 1.6 | 0.00 | 0.00 | 0.00 | 92 | 1008.8 |
| 20260506021320 | 25 | 165 | 0.0 | 3.2 | 0.00 | 0.00 | 0.00 | 92 | 1008.8 |
| 20260506020815 | 25 | 165 | 1.6 | 3.2 | 0.00 | 0.00 | 0.00 | 92 | 1008.8 |
| 20260506020241 | 25 | 165 | 0.0 | 3.2 | 0.00 | 0.00 | 0.00 | 92 | 1008.8 |
| 20260506015738 | 25 | 177 | 1.6 | 3.2 | 0.00 | 0.00 | 0.00 | 92 | 1008.5 |
| 20260506015234 | 25 | 71 | 0.0 | 3.2 | 0.00 | 0.00 | 0.00 | 92 | 1008.5 |
| 20260506014730 | 25 | 71 | 0.0 | 3.2 | 0.00 | 0.00 | 0.00 | 91 | 1008.5 |
| 20260506014156 | 25 | 127 | 1.6 | 1.6 | 0.00 | 0.00 | 0.00 | 91 | 1008.5 |
| 20260506013621 | 25 | 153 | 0.0 | 1.6 | 0.00 | 0.00 | 0.00 | 91 | 1008.5 |
| 20260506013117 | 25 | 153 | 0.0 | 3.2 | 0.00 | 0.00 | 0.00 | 91 | 1008.5 |
| 20260506012614 | 25 | 153 | 0.0 | 3.2 | 0.00 | 0.00 | 0.00 | 91 | 1008.5 |
| 20260506012109 | 25 | 153 | 0.0 | 3.2 | 0.00 | 0.00 | 0.00 | 91 | 1008.1 |
| 20260506011534 | 25 | 153 | 1.6 | 6.4 | 0.00 | 0.00 | 0.00 | 91 | 1008.1 |
| 20260506011030 | 25 | 150 | 1.6 | 8.0 | 0.00 | 0.00 | 0.00 | 91 | 1008.1 |
| 20260506010321 | 25 | 148 | 1.6 | 8.0 | 0.00 | 0.00 | 0.00 | 91 | 1008.1 |
| 20260506005818 | 25 | 189 | 1.6 | 8.0 | 0.00 | 0.00 | 0.00 | 90 | 1008.1 |
| 20260506005315 | 25 | 151 | 3.2 | 6.4 | 0.00 | 0.00 | 0.00 | 90 | 1007.8 |
| 20260506004740 | 25 | 177 | 0.0 | 6.4 | 0.00 | 0.00 | 0.00 | 90 | 1007.8 |
| 20260506004236 | 25 | 186 | 1.6 | 6.4 | 0.00 | 0.00 | 0.00 | 90 | 1007.8 |
| 20260506003733 | 25 | 161 | 0.0 | 6.4 | 0.00 | 0.00 | 0.00 | 90 | 1007.8 |
| 20260506003230 | 25 | 152 | 3.2 | 6.4 | 0.00 | 0.00 | 0.00 | 90 | 1007.8 |
| 20260506002726 | 25 | 157 | 1.6 | 4.8 | 0.00 | 0.00 | 0.00 | 90 | 1007.8 |
| 20260506002223 | 25 | 97 | 1.6 | 3.2 | 0.00 | 0.00 | 0.00 | 90 | 1007.8 |
| 20260506001720 | 25 | 96 | 1.6 | 3.2 | 0.00 | 0.00 | 0.00 | 90 | 1007.8 |
| 20260506001145 | 26 | 111 | 1.6 | 3.2 | 0.00 | 0.00 | 0.00 | 90 | 1007.8 |
| 20260506000520 | 26 | 126 | 0.0 | 3.2 | 0.00 | 0.00 | 0.00 | 89 | 1007.8 |
| 20260506000017 | 26 | 292 | 0.0 | 3.2 | 0.00 | 0.00 | 0.00 | 89 | 1007.8 |
| 20260505235514 | 26 | 309 | 1.6 | 3.2 | 0.00 | 0.00 | 0.00 | 89 | 1007.8 |
| 20260505235011 | 26 | 309 | 1.6 | 3.2 | 0.00 | 0.00 | 0.00 | 89 | 1007.8 |
| 20260505234437 | 26 | 309 | 1.6 | 3.2 | 0.00 | 0.00 | 0.00 | 89 | 1007.8 |
| 20260505233933 | 26 | 310 | 1.6 | 3.2 | 0.00 | 0.00 | 0.00 | 89 | 1007.8 |
| 20260505233411 | 26 | 314 | 1.6 | 3.2 | 0.00 | 0.00 | 0.00 | 89 | 1007.8 |
| 20260505232908 | 26 | 193 | 1.6 | 4.8 | 0.00 | 0.00 | 0.00 | 88 | 1007.8 |
| 20260505232346 | 26 | 187 | 0.0 | 4.8 | 0.00 | 0.00 | 0.00 | 88 | 1007.8 |
| 20260505231842 | 26 | 187 | 1.6 | 4.8 | 0.00 | 0.00 | 0.00 | 88 | 1007.8 |
| 20260505231339 | 26 | 80 | 0.0 | 4.8 | 0.00 | 0.00 | 0.00 | 88 | 1007.8 |
| 20260505230836 | 26 | 114 | 1.6 | 4.8 | 0.00 | 0.00 | 0.00 | 87 | 1007.8 |
| 20260505230302 | 26 | 113 | 1.6 | 4.8 | 0.00 | 0.00 | 0.00 | 87 | 1007.8 |
| 20260505225759 | 26 | 132 | 1.6 | 4.8 | 0.00 | 0.00 | 0.00 | 87 | 1007.8 |
| 20260505225256 | 26 | 169 | 1.6 | 6.4 | 0.00 | 0.00 | 0.00 | 87 | 1007.8 |